Location: Équennes
(49.7375°N, 1.9622°E)
Time: 17:35:58
(UTC+00:00)

Cosmos 2278 - Pass Details

Date: 30 September 2023
Orbit: 838 x 853 km, 71.1° (Epoch: 08 December)

Event Time Altitude Azimuth Distance (km) Brightness Sun altitude
Rises 19:14:10 0° 276° (W) 3,407 8.5 -16.9°
Reaches altitude 10° 19:18:01 10° 302° (WNW) 2,478 7.3 -17.5°
Maximum altitude 19:20:49 14° 332° (NNW) 2,227 6.5 -18.0°
Drops below altitude 10° 19:23:38 10° 2° (N) 2,487 6.3 -18.4°
Sets 19:27:31 0° 28° (NNE) 3,428 6.8 -19.0°
